Tracking 27405 objects as of 1-Jun-2023
HD Live streaming from Space Station
objects crossing your sky now

STARLINK-5165

Track STARLINK-5165 now!
10-day predictions
STARLINK-5165 is classified as:


NORAD ID: 54081
Int'l Code: 2022-136AG
Perigee: 546.2 km
Apogee: 547.6 km
Inclination: 53.2 °
Period: 95.4 minutes
Semi major axis: 6917 km
RCS: Unknown
Launch date: October 20, 2022
Source: United States (US)
Launch site: AIR FORCE EASTERN TEST RANGE (AFETR)
Your satellite tracking list
Your tracking list is empty




NASA's NSSDC Master Catalog

Two Line Element Set (TLE):
1 54081U 22136AG  23151.42606723 -.00000418  00000-0 -82134-5 0  9992
2 54081  53.2160 202.9857 0001027  86.6098 273.5012 15.08839145 34019
Source of the keplerian elements: AFSPC